Dewpoint
31 37 40 40 29 30 42 41 50 56 58 56 56 56 58 59 58 58 58 58 59 59 60 62 63 64 65 66 67 67 69 70 70 69 68 67 67 69 69 70 70 70 71 71
29 33 39 33 28 28 47 50 51 54 56 55 55 55 58 60 59 57 58 58 57 59 59 62 63 63 64 65 67 68 69 70 70 69 68 67 69 70 70 71 72 71 71 71
23 30 35 30 27 28 32 40 50 49 54 56 52 53 55 58 57 58 57 57 57 57 59 61 63 63 64 64 67 68 69 70 69 69 70 70 70 70 69 70 70 71 71 69
34 30 33 26 26 27 29 31 51 51 48 44 50 43 52 55 57 58 56 55 56 57 59 60 61 62 63 64 66 67 69 70 70 70 69 67 65 66 66 69 69 70 71 70
29 29 28 25 25 27 28 31 50 50 48 48 49 46 49 56 55 56 56 55 54 57 58 59 61 62 63 64 65 67 69 70 69 70 69 67 66 65 68 69 69 70 71 71
27 26 27 27 26 27 46 46 49 49 48 42 45 46 46 53 54 55 56 57 54 55 58 60 60 63 63 64 64 66 68 69 70 70 70 69 68 68 67 68 68 69 69 71
25 24 23 23 22 26 38 40 36 36 38 33 43 45 41 52 54 55 55 57 57 55 57 59 61 62 63 63 64 65 67 68 69 69 69 69 69 69 69 68 67 68 68 69
22 19 24 23 22 21 33 33 30 31 32 34 46 42 43 53 54 55 57 56 57 56 57 59 60 61 62 63 64 64 65 67 68 69 69 70 70 68 68 68 68 69 69 69
22 21 28 23 23 22 22 21 29 32 37 35 43 46 49 55 56 55 56 58 56 56 57 59 61 62 62 63 64 64 65 66 67 67 69 69 69 69 68 70 70 69 71 70
26 21 26 27 22 25 23 22 21 28 30 29 40 43 43 53 53 54 56 57 56 56 58 60 62 62 62 63 64 65 65 65 66 67 68 68 69 70 70 70 70 71 71 71
30 27 26 28 24 21 23 23 26 27 30 27 31 38 50 53 56 57 58 58 59 58 60 61 63 63 64 65 66 66 66 67 66 66 69 69 69 70 70 70 69 71 71 71
28 29 26 26 27 28 29 22 25 20 28 36 36 38 56 55 57 58 59 61 61 60 60 62 64 65 65 66 67 68 68 67 67 68 68 68 68 70 70 70 70 71 70 72
28 28 26 25 21 25 24 22 29 32 34 33 26 35 56 58 59 59 59 60 61 63 64 65 66 65 66 66 67 68 68 69 69 69 70 69 68 69 70 71 71 71 71 72
31 28 28 23 24 26 23 22 27 29 22 30 30 45 53 56 57 58 60 61 61 62 62 63 65 65 66 66 66 67 67 68 68 68 68 68 69 69 69 69 70 71 72 72
29 27 27 25 25 24 28 36 25 26 28 28 35 44 50 54 55 57 59 59 59 60 61 61 62 65 66 66 65 65 67 67 67 67 66 66 67 67 67 67 68 69 70 71
29 30 29 27 27 22 23 35 35 37 36 40 40 45 52 55 56 57 57 57 58 58 59 59 60 62 63 65 63 64 66 66 67 67 66 67 66 67 66 66 66 67 67 68
32 33 31 24 30 28 21 26 41 44 46 46 42 48 54 55 55 55 56 56 57 57 58 58 59 59 59 60 62 62 63 64 64 64 65 66 64 64 64 64 64 64 65 66
32 33 30 30 29 23 27 28 38 47 50 51 50 52 54 54 55 55 55 55 55 56 57 57 56 56 56 56 55 55 55 56 58 59 60 61 62 61 62 61 60 61 62 63
31 31 28 24 28 31 28 30 32 34 38 52 52 53 54 55 54 53 54 55 55 57 55 53 53 53 53 53 54 53 53 54 54 53 54 55 57 57 57 56 57 58 60 62
27 33 26 27 24 25 34 34 37 43 31 53 52 53 53 52 49 49 51 51 53 54 52 52 52 51 50 51 51 50 50 49 49 49 51 52 54 55 55 57 58 58 60 59
27 27 25 27 25 25 33 38 38 28 31 49 54 53 52 52 52 49 49 51 54 52 50 50 49 48 48 48 49 49 49 48 48 49 49 50 51 52 52 52 53 55 54 53
31 26 24 26 23 21 39 38 34 39 43 50 54 53 53 51 50 49 49 51 53 50 50 49 48 47 47 47 47 47 48 48 48 49 49 50 51 49 51 50 51 51 52 51
32 33 33 31 31 40 41 41 43 43 44 50 54 52 50 49 50 50 50 51 51 50 49 47 46 46 46 46 46 45 47 47 47 47 47 47 48 48 49 48 48 47 49 47
37 38 38 38 40 39 39 42 47 48 48 51 52 50 50 50 50 49 48 48 48 48 47 46 45 44 44 45 45 45 45 45 45 44 44 44 44 45 45 44 44 44 44 44
37 38 38 38 40 40 40 42 44 48 51 51 51 50 50 50 49 48 47 47 46 46 46 45 44 43 43 44 44 44 44 44 42 40 40 39 39 40 40 41 41 41 41 41
40 38 38 36 41 41 41 42 42 44 48 50 50 49 50 50 49 49 48 48 48 47 45 45 44 44 43 43 43 43 44 42 38 37 36 36 36 36 36 35 36 38 36 37
Wind_Speed
6 9 17 13 6 5 9 5 9 6 4 9 4 12 25 24 23 22 20 21 21 21 19 16 16 16 15 14 14 14 11 10 12 8 8 7 7 5 4 3 5 6 4 4
9 19 9 5 6 6 10 11 8 11 4 9 10 5 19 23 23 22 22 22 22 19 18 17 19 18 18 17 15 14 13 12 14 10 8 6 8 3 3 4 4 4 4 3
17 5 10 8 8 9 5 4 10 8 11 13 15 4 12 7 12 9 10 19 21 22 21 20 19 21 18 19 19 16 14 13 10 9 9 7 7 6 6 6 5 4 4 4
11 4 15 9 13 9 9 7 10 21 8 5 3 3 11 17 15 20 22 13 21 22 22 23 22 22 21 22 17 16 15 13 11 11 11 14 11 7 6 7 7 5 5 4
5 13 14 13 9 8 0 14 15 18 8 8 11 5 6 19 21 25 27 24 19 23 24 24 25 25 22 19 19 18 16 14 11 12 10 11 9 6 5 5 7 9 8 6
4 2 9 10 8 10 10 18 13 6 3 4 13 11 9 22 39 28 33 31 26 20 25 24 27 17 19 17 17 17 16 16 13 12 10 11 12 8 7 7 6 7 6 5
5 5 3 4 8 7 11 19 7 4 5 5 4 13 9 21 12 34 37 30 27 21 23 24 22 22 21 21 21 19 18 17 16 13 12 10 10 9 8 6 7 8 7 7
11 12 11 8 11 8 15 14 9 9 8 7 8 9 3 5 14 20 31 30 29 22 25 25 25 25 23 23 19 18 17 16 15 13 11 8 7 6 6 8 6 7 6 7
5 6 1 7 7 15 8 14 9 2 1 6 6 4 4 4 11 18 26 28 29 23 23 25 23 23 22 19 20 19 15 15 13 14 11 10 8 7 6 6 5 6 5 5
6 4 4 6 8 3 9 12 14 8 11 10 5 4 6 9 11 15 20 26 24 24 20 15 16 18 18 16 17 16 15 15 15 14 13 11 11 8 6 5 5 4 5 6
5 4 5 3 10 15 9 7 5 9 4 14 9 6 4 10 15 17 16 18 19 20 17 14 15 16 14 13 12 13 15 16 16 15 12 13 11 9 7 6 3 4 4 4
3 3 6 4 2 3 3 13 17 16 13 2 3 3 3 7 14 16 16 15 14 15 16 15 13 13 15 15 11 5 8 12 15 14 13 12 9 8 7 6 5 4 3 4
5 1 4 5 4 3 3 1 5 3 5 13 13 5 4 10 13 16 17 13 11 10 10 9 10 12 13 14 13 6 5 5 8 7 8 10 11 7 7 6 5 3 4 5
2 3 4 8 1 1 2 2 4 9 15 9 10 8 14 14 13 13 13 11 10 8 6 7 10 13 15 18 17 11 9 10 11 9 12 11 9 8 7 6 7 4 2 3
0 4 4 4 2 9 7 6 3 8 3 12 11 15 21 21 18 14 12 13 11 10 7 7 9 13 18 19 17 18 16 12 13 14 12 18 11 10 8 8 8 7 6 4
3 2 1 4 1 5 5 12 5 3 1 2 6 10 10 18 17 17 14 13 13 11 10 9 7 12 13 12 13 10 11 11 14 13 12 14 12 10 8 8 8 8 8 7
2 3 3 5 5 4 4 8 7 2 1 0 6 3 20 22 21 18 17 14 12 12 11 11 12 11 16 13 12 11 11 14 13 11 8 9 13 12 9 7 9 8 7 7
4 5 2 4 4 10 5 4 5 4 3 3 5 4 17 17 15 15 15 16 15 14 12 12 14 16 17 14 16 17 15 17 16 14 14 11 12 12 12 9 9 8 5 6
3 3 3 3 3 3 3 4 6 8 4 1 6 12 18 19 19 13 15 16 18 19 17 15 14 16 17 16 15 19 17 15 17 14 12 11 10 12 11 10 9 8 6 7
5 4 5 0 3 7 3 4 7 6 4 3 8 16 22 21 13 9 17 19 20 19 20 18 14 15 16 14 14 19 17 17 16 12 10 10 10 10 10 9 12 11 10 13
2 3 7 9 7 3 5 15 3 3 2 6 8 17 23 20 7 21 19 18 18 18 19 17 15 14 12 10 12 15 13 15 12 11 11 12 12 12 11 11 11 13 14 16
1 1 2 2 2 4 8 2 3 7 8 5 9 14 15 8 23 24 21 20 20 19 17 14 16 14 10 8 11 13 13 9 10 12 12 12 11 10 11 12 11 12 11 13
2 1 0 3 1 4 5 3 8 9 10 4 7 12 18 19 20 22 20 21 20 19 16 12 14 13 9 8 8 12 9 9 11 13 11 11 11 11 10 10 10 10 10 9
1 1 2 1 1 2 7 7 9 8 5 1 11 17 20 22 21 22 20 19 20 16 13 11 12 12 10 8 9 10 9 9 11 12 12 10 11 12 10 9 9 9 8 8
0 4 2 3 4 3 3 6 8 7 4 7 10 13 19 24 21 22 19 17 18 12 11 12 10 9 9 9 9 9 9 10 11 11 11 11 10 12 12 12 10 13 15 11
5 4 4 3 1 1 2 5 4 4 2 5 13 13 14 19 23 20 16 13 19 12 7 8 9 11 9 7 8 8 8 9 11 12 10 10 10 10 10 11 14 20 19 20
Wind_Direction
157 191 198 196 202 131 157 182 132 106 48 88 8 158 172 181 198 196 184 189 190 195 194 190 193 190 186 189 191 191 199 184 168 170 163 164 164 163 143 162 162 169 157 145
163 211 192 208 205 132 128 149 105 89 47 92 51 169 169 184 204 198 187 193 194 190 188 189 195 195 195 191 195 194 198 191 176 179 174 170 159 162 158 173 196 180 184 181
188 194 174 185 192 173 155 145 155 138 121 77 97 26 181 158 178 183 190 202 200 194 191 196 194 197 199 198 195 193 192 187 183 170 149 131 129 133 165 178 184 185 193 188
190 143 171 174 191 191 180 202 140 137 139 137 178 200 226 187 181 215 216 200 204 205 199 196 196 201 202 203 198 195 190 191 188 176 171 170 177 178 196 185 170 178 194 175
158 163 169 175 184 188 181 173 154 161 102 133 194 161 206 198 204 200 211 218 208 206 204 199 203 203 203 199 197 198 195 193 194 192 195 178 178 182 165 165 180 184 182 180
128 149 174 199 187 176 122 132 106 119 139 227 201 210 204 193 209 198 205 217 214 212 205 208 208 192 200 199 198 198 197 198 194 199 199 198 189 178 181 178 195 187 178 175
198 190 183 176 164 147 181 171 161 187 198 228 158 204 248 202 198 204 202 204 206 208 204 209 202 196 192 198 199 199 200 202 197 198 204 210 208 188 198 205 208 198 191 186
207 218 214 180 210 177 189 205 194 200 196 205 129 213 237 182 214 216 209 208 202 208 204 206 201 198 195 196 199 201 205 206 197 199 205 212 221 202 200 196 211 210 219 203
180 223 231 205 181 193 184 223 240 136 21 199 177 235 244 234 218 202 203 200 198 206 206 202 201 199 191 187 192 198 199 205 206 203 205 205 210 221 206 189 201 213 214 224
184 254 196 165 180 175 212 189 206 223 212 229 206 240 187 178 171 178 188 190 196 197 195 188 183 197 191 182 188 192 190 199 201 203 215 209 201 204 220 203 208 222 222 209
160 212 152 181 203 191 180 207 209 218 245 217 211 227 183 170 174 173 168 170 175 174 182 179 180 182 157 158 164 179 188 188 195 203 208 224 212 205 212 239 195 184 179 222
186 183 236 241 111 278 219 218 202 216 206 225 266 186 312 176 168 171 165 157 153 176 180 182 179 163 164 147 125 133 186 203 202 188 200 216 234 219 218 236 245 196 216 211
193 207 211 187 172 126 176 156 221 188 200 206 220 210 147 153 158 171 169 164 160 161 153 155 167 171 152 129 113 129 181 178 197 189 170 201 210 208 206 211 212 213 225 226
176 166 246 247 207 75 145 12 201 227 226 203 221 179 188 184 174 169 164 154 137 143 142 122 143 155 141 132 126 136 137 130 123 130 140 137 134 137 130 136 119 126 162 186
346 197 161 131 86 111 79 25 225 210 222 222 203 200 192 184 176 172 153 140 139 136 126 122 137 153 160 155 152 164 153 153 144 134 137 120 126 115 113 104 94 93 89 93
359 134 356 162 124 165 76 49 82 113 150 268 181 202 181 166 160 156 160 156 151 147 140 132 114 129 121 146 153 171 167 167 151 161 145 134 138 123 115 102 86 76 77 67
36 77 1 189 342 229 202 21 29 349 96 301 187 357 164 163 165 163 159 161 155 144 136 123 113 89 98 104 110 105 105 104 101 105 120 133 132 122 108 98 96 87 83 85
134 106 70 312 307 223 99 35 59 66 71 331 304 194 176 158 140 147 153 147 143 135 115 107 109 101 95 91 93 93 89 90 92 86 84 89 102 103 106 99 92 82 67 78
27 126 108 348 309 325 148 27 24 17 360 350 143 151 143 134 125 131 154 154 147 134 114 102 101 102 100 96 96 93 86 86 87 85 88 90 101 113 119 115 96 88 76 61
23 74 185 233 280 236 66 356 334 275 38 105 156 162 154 150 150 159 147 142 134 124 116 115 109 101 97 104 105 101 102 97 93 94 88 86 93 101 102 103 100 91 93 84
33 64 190 187 200 268 351 322 348 251 72 318 190 179 173 181 189 147 133 126 124 119 116 113 104 98 98 106 106 101 103 95 101 101 91 78 80 81 78 83 77 86 91 87
299 197 168 135 176 195 359 23 338 331 309 296 200 183 182 139 137 136 127 126 129 128 121 113 118 112 106 111 116 111 102 104 103 98 90 84 78 81 79 80 79 81 95 94
226 270 38 220 39 341 334 330 311 297 283 313 187 160 137 139 145 136 136 133 133 135 133 133 123 113 103 103 115 118 119 120 111 106 98 92 88 82 76 80 77 77 78 86
213 174 284 265 164 325 351 357 12 347 314 243 156 153 139 144 149 139 134 135 132 132 134 131 127 121 114 108 112 118 123 119 113 107 105 100 96 88 79 74 69 67 63 62
143 158 188 273 260 239 124 22 357 12 36 106 126 138 145 148 150 146 143 140 120 125 143 143 137 128 122 120 116 120 125 127 119 112 109 104 98 94 89 73 65 80 58 55
193 190 196 237 357 334 42 360 352 349 39 148 140 140 157 158 151 144 139 147 130 145 153 161 145 138 140 139 132 126 130 137 129 123 118 112 110 104 103 102 91 68 74 71